This is the latest recevied weather packets stored in our database for station/object KI4BIY. If no packets are shown the sender has not sent any weather packets the latest 10 day(s).
| Time | Temp. | Humidity | Pressure | Rain* | Wind** | Luminosity | Snow |
|---|---|---|---|---|---|---|---|
| 1778244319 | 12.22° C | 87% | 1016.4 hPa | 0 mm | - | 87 W/m² | - |
| 1778244015 | 11.67° C | 88% | 1016.2 hPa | 0 mm | - | 29 W/m² | - |
| 1778243714 | 11.11° C | 91% | 1016.3 hPa | 0 mm | - | 25 W/m² | - |
| 1778243410 | 10.56° C | 96% | 1016.2 hPa | 0 mm | - | 23 W/m² | - |
| 1778243108 | 10° C | 99% | 1016.2 hPa | 0 mm | - | 21 W/m² | - |
| 1778242804 | 10° C | 99% | 1016.3 hPa | 0 mm | - | 19 W/m² | - |
| 1778242502 | 10° C | 99% | 1016 hPa | 0 mm | - | 18 W/m² | - |
| 1778242200 | 9.44° C | 99% | 1016 hPa | 0 mm | - | 17 W/m² | - |
| 1778241897 | 9.44° C | 99% | 1016 hPa | 0 mm | - | 16 W/m² | - |
| 1778241595 | 8.89° C | 99% | 1015.9 hPa | 0 mm | - | 15 W/m² | - |
| 1778241293 | 8.89° C | 99% | 1015.8 hPa | 0 mm | - | 13 W/m² | - |
| 1778240989 | 8.89° C | 99% | 1016.1 hPa | 0 mm | - | 11 W/m² | - |
| 1778240686 | 8.89° C | 99% | 1015.7 hPa | 0 mm | - | 11 W/m² | - |
| 1778240382 | 8.89° C | 99% | 1015.9 hPa | 0 mm | - | 9 W/m² | - |
| 1778240080 | 8.33° C | 99% | 1015.7 hPa | 0 mm | - | 8 W/m² | - |
| 1778239777 | 8.33° C | 99% | 1015.7 hPa | 0 mm | - | 7 W/m² | - |
| 1778239474 | 8.33° C | 99% | 1015.6 hPa | 0 mm | - | 5 W/m² | - |
| 1778239171 | 8.33° C | 99% | 1015.7 hPa | 0 mm | - | 3 W/m² | - |
| 1778238868 | 8.33° C | 99% | 1015.3 hPa | 0 mm | - | 3 W/m² | - |
| 1778238565 | 8.33° C | 99% | 1015.5 hPa | 0 mm | - | 2 W/m² | - |
| 1778238263 | 7.78° C | 99% | 1015.4 hPa | 0 mm | - | 0 W/m² | - |
| 1778237962 | 8.33° C | 99% | 1015.3 hPa | 0 mm | - | 0 W/m² | - |
| 1778237659 | 8.33° C | 99% | 1015.2 hPa | 0 mm | - | 0 W/m² | - |
| 1778237356 | 8.33° C | 99% | 1015.2 hPa | 0 mm | - | 0 W/m² | - |
| 1778237053 | 8.33° C | 99% | 1015.1 hPa | 0 mm | - | 0 W/m² | - |
* Rain latest hour (hover to see other rain measurements)
** Current wind speed in m/s (hover to see current wind gust speed)